Home > Weather > Erfurt > Past weeks

Flag for Germany Weather for the Past 2 Weeks in Erfurt, Thuringia, Germany

Now
46 °F

Sunny.


Feels Like: 41 °F
Forecast: 38 / 51 °F
Wind: 13 mph from Southwest

Location: Erfurt-Bindersleben

Current Time: Feb 6, 2016 at 1:05:25 PM

Latest Report: Feb 6, 2016 at 11:50 AM


Visibility: 10 mi

Pressure: 29.98 "Hg

Humidity: 76%

Dew point: 39 °F

Location of ErfurtLocation

Historic Weather in Erfurt — Graph

°F

Erfurt Temperature Yesterday

Maximum temperature yesterday: 43 °F (at 8:50 PM)
Minimum temperature yesterday: 32 °F (at 4:20 AM)
Average temperature yesterday: 38 °F

High & Low Weather Summary for the Past Weeks

 TemperatureHumidityPressure
High54 °F (Feb 1, 1:20 PM)100% (Jan 23, 8:50 AM)30.54 "Hg (Jan 23, 8:50 AM)
Low10 °F (Jan 22, 11:20 AM)53% (Jan 28, 2:20 PM)29.68 "Hg (Jan 30, 4:50 PM)
Average41 °F81%30.12 "Hg
* Reported Jan 22 11:20 AM — Feb 6 11:50 AM, Erfurt, Weather by CustomWeather, © 2016

Note: Actual official high and low records may vary slightly from our data, if they occured in-between our weather recording intervals... More about our weather records

Advertising

Erfurt Weather History for the Previous 24 Hours

 ConditionsComfort  
Time TempWeatherWind HumidityBarometerVisibility
11:50 AM
Sat, Feb 6
46 °FSunny.13 mph76%29.98 "Hg10 mi
11:20 AM45 °FPassing clouds.5 mph81%29.98 "HgN/A
10:50 AM45 °FBroken clouds.6 mph76%29.98 "HgN/A
10:20 AM43 °FSunny.7 mph81%29.98 "Hg10 mi
9:50 AM43 °FSunny.12 mph81%29.98 "Hg10 mi
9:20 AM43 °FSunny.15 mph81%30.01 "Hg10 mi
8:50 AM41 °FSunny.13 mph87%30.01 "Hg10 mi
8:20 AM39 °FSunny.10 mph87%30.01 "Hg10 mi
7:50 AM37 °FSunny.9 mph93%30.01 "Hg10 mi
7:20 AM39 °FClear.12 mph87%30.01 "Hg10 mi
6:50 AM39 °FClear.8 mph87%30.04 "Hg10 mi
6:20 AM41 °FClear.8 mph87%30.04 "Hg10 mi
5:50 AM41 °FClear.10 mph87%30.04 "Hg10 mi
5:20 AM41 °FPassing clouds.12 mph87%30.07 "HgN/A
4:50 AM43 °FPassing clouds.8 mph81%30.07 "HgN/A
4:20 AM43 °FPassing clouds.6 mph87%30.09 "HgN/A
3:50 AM43 °FPassing clouds.6 mph87%30.09 "HgN/A
3:20 AM43 °FPassing clouds.6 mph87%30.09 "HgN/A
2:50 AM43 °FPassing clouds.6 mph87%30.09 "HgN/A
2:20 AM43 °FPassing clouds.7 mph87%30.12 "HgN/A
1:20 AM45 °FPassing clouds.8 mph87%30.12 "HgN/A
12:50 AM45 °FPassing clouds.12 mph81%30.12 "HgN/A
12:20 AM43 °FPassing clouds.10 mph93%30.12 "HgN/A
11:50 PM
Fri, Feb 5
43 °FPassing clouds.12 mph87%30.15 "HgN/A
11:20 PM43 °FPassing clouds.12 mph87%30.15 "HgN/A
10:50 PM39 °FClear.9 mph93%30.15 "Hg10 mi
10:20 PM41 °FPassing clouds.10 mph93%30.15 "HgN/A
9:50 PM43 °FPartly cloudy.14 mph87%30.18 "HgN/A
9:20 PM43 °FPassing clouds.12 mph87%30.18 "HgN/A
8:50 PM43 °FPassing clouds.10 mph87%30.18 "HgN/A
8:20 PM41 °FPassing clouds.12 mph93%30.18 "HgN/A
7:50 PM41 °FOvercast.12 mph93%30.18 "HgN/A
7:20 PM41 °FOvercast.14 mph93%30.18 "HgN/A
6:50 PM41 °FOvercast.16 mph93%30.18 "HgN/A
6:20 PM41 °FPassing clouds.12 mph87%30.18 "HgN/A
5:50 PM41 °FLight rain. Passing clouds.16 mph87%30.18 "HgN/A
5:20 PM41 °FPassing clouds.16 mph87%30.18 "HgN/A
4:50 PM41 °FPartly sunny.15 mph87%30.18 "HgN/A
4:20 PM41 °FPartly sunny.15 mph87%30.18 "HgN/A
3:50 PM39 °FLight rain. Partly sunny.14 mph93%30.18 "HgN/A
3:20 PM39 °FLight rain. Mostly cloudy.20 mph93%30.18 "HgN/A
2:50 PM41 °FLight rain. Overcast.16 mph87%30.18 "HgN/A
2:20 PM41 °FDrizzle. Overcast.15 mph81%30.18 "HgN/A
1:50 PM41 °FDrizzle. Overcast.14 mph81%30.21 "HgN/A
1:20 PM39 °FPartly sunny.16 mph87%30.21 "HgN/A
Weather by CustomWeather, © 2016

See weather overviewHow to use our weather pages